Weather History for Brenham, TX

Change the Weather History Date:

Thursday, February 21, 2013

  Actual Average (KCLL) Record (KCLL)
Temperature  
Mean Temperature 66 °F 56 °F  
Max Temperature 78 °F 66 °F 97 °F (1996)
Min Temperature 53 °F 46 °F 23 °F (1918)
Degree Days  
Heating Degree Days 0 10  
Month to date heating degree days 245  
Since 1 July heating degree days 1323  
Cooling Degree Days 0 1  
Month to date cooling degree days 18  
Year to date cooling degree days 29  
Growing Degree Days 16 (Base 50)    
Moisture  
Dew Point 52 °F    
Average Humidity 62    
Maximum Humidity 94    
Minimum Humidity 22    
Precipitation  
Precipitation 0.01 in 0.09 in 2.75 in (1928)
Month to date precipitation 2.18  
Year to date precipitation 5.42  
Sea Level Pressure  
Sea Level Pressure 29.74 in    
Wind  
Wind Speed 12 mph (South)    
Max Wind Speed 21 mph    
Max Gust Speed 29 mph    
Visibility 8 miles    
Events Rain    
T = Trace of Precipitation, MM = Missing Value Source: NWS Daily Summary

Daily Weather History Graph

Daily Weather History Graph

Search for Another Location

Airport:

Trip Planner

Search our weather history database for the weather conditions in past years. The results will help you decide how hot, cold, wet, or windy it might be!

Date:

Astronomy

Feb. 21, 2013 Rise Set
Actual Time 6:59 AM CST 6:18 PM CST
Civil Twilight 6:35 AM CST 6:43 PM CST
Nautical Twilight 6:07 AM CST 7:11 PM CST
Astronomical Twilight 5:39 AM CST 7:38 PM CST
Moon 2:45 PM CST (2/21) 3:53 AM CST (2/21)
Length of Visible Light 12h 07m
Length of Day
11h 19m
Waxing Gibbous, 84% of the Moon is Illuminated
Feb 21
Waxing Gibbous
Feb 25
Full
Mar 4
Last Quarter
Mar 11
New
Mar 19
First Quarter

Hourly Weather History & Observations

Time (CST) Temp. Dew Point Humidity Pressure Visibility Wind Dir Wind Speed Gust Speed Precip Events Conditions
12:15 AM 62.6 °F 60.8 °F 94% 29.74 in 4.0 mi SE 13.8 mph 21.9 mph N/A   Light Drizzle
12:35 AM 62.6 °F 60.8 °F 94% 29.73 in 2.5 mi SE 13.8 mph 23.0 mph N/A   Overcast
12:55 AM 62.6 °F 60.8 °F 94% 29.73 in 2.5 mi SE 16.1 mph 23.0 mph N/A Rain Light Rain
1:15 AM 62.6 °F 60.8 °F 94% 29.73 in 2.5 mi SE 15.0 mph 23.0 mph N/A Rain Light Rain
1:35 AM 62.6 °F 60.8 °F 94% 29.73 in 2.0 mi SE 11.5 mph 18.4 mph N/A   Overcast
1:55 AM 64.4 °F 60.8 °F 88% 29.72 in 1.8 mi SE 13.8 mph 19.6 mph N/A   Overcast
2:15 AM 64.4 °F 62.6 °F 94% 29.69 in 1.8 mi SE 11.5 mph - N/A   Overcast
2:35 AM 64.4 °F 62.6 °F 94% 29.70 in 2.5 mi SE 12.7 mph 18.4 mph N/A   Overcast
2:55 AM 66.2 °F 64.4 °F 94% 29.68 in 4.0 mi SE 10.4 mph 19.6 mph N/A   Overcast
3:15 AM 68.0 °F 64.4 °F 88% 29.67 in 7.0 mi SSE 12.7 mph 21.9 mph N/A Rain Light Rain
3:35 AM 69.8 °F 66.2 °F 88% 29.66 in 7.0 mi SSE 18.4 mph 27.6 mph N/A Rain Light Rain
3:55 AM 69.8 °F 66.2 °F 88% 29.66 in 7.0 mi SE 16.1 mph 23.0 mph N/A   Overcast
4:15 AM 69.8 °F 64.4 °F 83% 29.66 in 7.0 mi SE 13.8 mph 25.3 mph N/A   Overcast
4:35 AM 69.8 °F 64.4 °F 83% 29.66 in 7.0 mi SE 13.8 mph 23.0 mph N/A   Overcast
4:55 AM 69.8 °F 66.2 °F 88% 29.66 in 5.0 mi SE 12.7 mph 23.0 mph N/A Rain Light Rain
5:15 AM 69.8 °F 66.2 °F 88% 29.65 in 7.0 mi SE 10.4 mph - N/A Rain Light Rain
5:35 AM 69.8 °F 68.0 °F 94% 29.67 in 7.0 mi SSE 12.7 mph 17.3 mph N/A Rain Light Rain
5:55 AM 69.8 °F 68.0 °F 94% 29.66 in 7.0 mi SE 13.8 mph 17.3 mph N/A Rain Rain
6:15 AM 71.6 °F 68.0 °F 88% 29.64 in 10.0 mi SSE 11.5 mph 20.7 mph N/A   Light Drizzle
6:35 AM 71.6 °F 68.0 °F 88% 29.64 in 10.0 mi SE 12.7 mph 20.7 mph N/A   Overcast
6:55 AM 71.6 °F 68.0 °F 88% 29.65 in 10.0 mi SSE 16.1 mph 21.9 mph N/A   Overcast
7:15 AM 71.6 °F 68.0 °F 88% 29.65 in 10.0 mi SSE 16.1 mph 20.7 mph N/A   Overcast
7:35 AM 71.6 °F 68.0 °F 88% 29.65 in 7.0 mi SSE 20.7 mph 28.8 mph N/A   Overcast
7:55 AM 73.4 °F 68.0 °F 83% 29.68 in 10.0 mi South 16.1 mph 25.3 mph N/A   Overcast
8:15 AM 73.4 °F 68.0 °F 83% 29.70 in 7.0 mi SSW 11.5 mph 19.6 mph N/A   Overcast
8:35 AM 73.4 °F 68.0 °F 83% 29.71 in 7.0 mi SSW 18.4 mph 26.5 mph 0.01 in Rain Light Rain
8:55 AM 73.4 °F 68.0 °F 83% 29.72 in 7.0 mi SSW 15.0 mph 23.0 mph 0.01 in   Overcast
9:15 AM 73.4 °F 68.0 °F 83% 29.73 in 7.0 mi South 13.8 mph 24.2 mph N/A   Mostly Cloudy
9:35 AM 75.2 °F 68.0 °F 78% 29.73 in 7.0 mi South 20.7 mph 25.3 mph N/A   Mostly Cloudy
9:55 AM 77.0 °F 68.0 °F 74% 29.73 in 7.0 mi SSW 18.4 mph 24.2 mph N/A   Scattered Clouds
10:15 AM 77.0 °F 68.0 °F 74% 29.72 in 10.0 mi SSW 19.6 mph 25.3 mph N/A   Scattered Clouds
10:35 AM 78.8 °F 68.0 °F 69% 29.73 in 10.0 mi SSW 17.3 mph 27.6 mph N/A   Clear
10:55 AM 66.2 °F 48.2 °F 52% 29.78 in 10.0 mi WNW 17.3 mph 26.5 mph N/A   Mostly Cloudy
11:15 AM 64.4 °F 48.2 °F 56% 29.78 in 10.0 mi NW 17.3 mph 24.2 mph N/A   Mostly Cloudy
11:35 AM 68.0 °F 50.0 °F 52% 29.78 in 10.0 mi NW 13.8 mph 18.4 mph N/A   Scattered Clouds
11:55 AM 69.8 °F 51.8 °F 53% 29.77 in 10.0 mi NW 15.0 mph 23.0 mph N/A   Clear
12:15 PM 71.6 °F 44.6 °F 38% 29.77 in 10.0 mi NW 19.6 mph 25.3 mph N/A   Clear
12:35 PM 73.4 °F 42.8 °F 33% 29.75 in 10.0 mi NW 18.4 mph 25.3 mph N/A   Clear
12:55 PM 73.4 °F 41.0 °F 31% 29.74 in 10.0 mi NW 16.1 mph 20.7 mph N/A   Clear
1:15 PM 73.4 °F 41.0 °F 31% 29.74 in 10.0 mi WNW 15.0 mph 25.3 mph N/A   Scattered Clouds
1:35 PM 75.2 °F 39.2 °F 27% 29.74 in 10.0 mi NW 15.0 mph - N/A   Scattered Clouds
1:55 PM 73.4 °F 37.4 °F 27% 29.74 in 10.0 mi WNW 16.1 mph 21.9 mph N/A   Mostly Cloudy
2:15 PM 73.4 °F 37.4 °F 27% 29.74 in 10.0 mi WNW 12.7 mph - N/A   Overcast
2:35 PM 71.6 °F 35.6 °F 27% 29.74 in 10.0 mi NW 13.8 mph - N/A   Overcast
2:55 PM 73.4 °F 35.6 °F 25% 29.74 in 10.0 mi NW 11.5 mph 16.1 mph N/A   Mostly Cloudy
3:15 PM 73.4 °F 33.8 °F 23% 29.73 in 10.0 mi WNW 9.2 mph - N/A   Scattered Clouds
3:35 PM 73.4 °F 33.8 °F 23% 29.74 in 10.0 mi WNW 11.5 mph 17.3 mph N/A   Scattered Clouds
3:55 PM 73.4 °F 33.8 °F 23% 29.74 in 10.0 mi NW 8.1 mph - N/A   Mostly Cloudy
4:15 PM 73.4 °F 33.8 °F 23% 29.74 in 10.0 mi WNW 5.8 mph - N/A   Scattered Clouds
4:35 PM 75.2 °F 33.8 °F 22% 29.74 in 10.0 mi NW 8.1 mph - N/A   Scattered Clouds
4:55 PM 75.2 °F 33.8 °F 22% 29.74 in 10.0 mi NW 3.5 mph - N/A   Clear
5:15 PM 73.4 °F 35.6 °F 25% 29.75 in 10.0 mi Calm Calm - N/A   Clear
5:35 PM 73.4 °F 37.4 °F 27% 29.75 in 10.0 mi Calm Calm - N/A   Clear
5:55 PM 71.6 °F 37.4 °F 29% 29.76 in 10.0 mi Calm Calm - N/A   Clear
6:15 PM 69.8 °F 41.0 °F 35% 29.77 in 10.0 mi Calm Calm - N/A   Clear
6:35 PM 68.0 °F 41.0 °F 37% 29.78 in 10.0 mi Calm Calm - N/A   Clear
6:55 PM 64.4 °F 42.8 °F 45% 29.79 in 10.0 mi Calm Calm - N/A   Clear
7:15 PM 64.4 °F 41.0 °F 42% 29.79 in 10.0 mi Calm Calm - N/A   Clear
7:35 PM 62.6 °F 41.0 °F 45% 29.81 in 10.0 mi NNE 3.5 mph - N/A   Clear
7:55 PM 64.4 °F 42.8 °F 45% 29.82 in 10.0 mi Calm Calm - N/A   Clear
8:15 PM 62.6 °F 44.6 °F 52% 29.82 in 10.0 mi Calm Calm - N/A   Clear
8:35 PM 60.8 °F 42.8 °F 52% 29.83 in 10.0 mi Calm Calm - N/A   Clear
8:55 PM 60.8 °F 44.6 °F 55% 29.84 in 10.0 mi Calm Calm - N/A   Clear
9:15 PM 59.0 °F 44.6 °F 59% 29.85 in 10.0 mi Calm Calm - N/A   Clear
9:35 PM 57.2 °F 44.6 °F 63% 29.85 in 10.0 mi Calm Calm - N/A   Clear
9:55 PM 55.4 °F 44.6 °F 67% 29.86 in 10.0 mi Calm Calm - N/A   Clear
10:15 PM 55.4 °F 46.4 °F 72% 29.87 in 10.0 mi Calm Calm - N/A   Clear
10:35 PM 55.4 °F 44.6 °F 67% 29.88 in 10.0 mi Calm Calm - N/A   Clear
10:55 PM 57.2 °F 42.8 °F 59% 29.87 in 10.0 mi North 4.6 mph - N/A   Clear
11:15 PM 55.4 °F 42.8 °F 63% 29.87 in 10.0 mi North 3.5 mph - N/A   Clear
11:35 PM 53.6 °F 44.6 °F 72% 29.87 in 10.0 mi Calm Calm - N/A   Clear
11:55 PM 55.4 °F 42.8 °F 63% 29.86 in 10.0 mi NE 3.5 mph - N/A   Clear